[[{"header":{"parameterUnit":"m.s-1","parameterCategory":1,"la1":30.2991,"la2":30.254,"lo1":-89.0895,"lo2":-89.0444,"dy":0.0017,"dx":0.0017,"nx":28,"ny":28,"refTime":"2025-01-27T03:00:00:Z","depth":0,"parameterNumber":2,"parameterNumberName":"U-component_of_WINDS"},"data":[0,0,0,0,0,0,0,0,0,0,0,0,0,0,0,0,0,0,0,0,0,0,0,0,0,0,0,0,0,0,0,0,0,0,0,0,0,0,0,0,0,0,0,0,0,0,0,0,0,0,0,0,0,0,0,0,0,0,-1.711,-1.711,0,-1.7131,-1.7131,-1.7131,-1.7087,-1.7085,-1.7084,-1.7082,-1.7104,-1.7106,-1.7108,0,0,0,0,0,0,0,0,0,0,0,0,0,-1.7032,-1.7034,-1.711,-1.711,-1.7111,-1.7131,-1.7131,-1.7131,-1.7087,-1.7085,-1.7083,-1.7082,-1.7103,-1.7105,-1.7108,0,0,0,0,0,0,0,0,0,0,0,0,0,-1.7061,-1.7034,-1.711,-1.7091,-1.7089,-1.7131,-1.7131,-1.7131,-1.7087,-1.7085,-1.7083,-1.7081,-1.7102,-1.7105,-1.7108,-1.7169,0,0,-1.7117,-1.7118,0,0,0,0,0,0,0,0,-1.7059,-1.7064,-1.7093,-1.7092,-1.7091,-1.7104,-1.7111,-1.7144,-1.7088,-1.7088,-1.7082,-1.708,-1.7106,-1.7108,-1.7117,-1.717,-1.7171,-1.7117,-1.7119,-1.712,-1.7121,0,0,0,0,0,0,0,-1.7057,-1.7062,-1.7118,-1.7094,-1.7092,-1.7081,-1.7083,-1.7117,-1.7109,-1.7088,-1.7085,-1.7088,-1.7104,-1.7114,-1.7117,-1.7172,-1.7117,-1.712,-1.7121,-1.7123,-1.7277,-1.7279,0,0,0,0,0,0,-1.7058,-1.7061,-1.7118,-1.7119,-1.7069,-1.7084,-1.7086,-1.7102,-1.7108,-1.7107,-1.709,-1.7086,-1.711,-1.7114,-1.7118,-1.719,-1.712,-1.7123,-1.7124,-1.7274,-1.7277,-1.728,0,0,0,0,0,0,-1.7056,-1.7063,-1.7117,-1.7089,-1.7095,-1.7088,-1.7106,-1.7103,-1.7113,-1.711,-1.7108,-1.7101,-1.7109,-1.7113,-1.7157,-1.719,-1.7124,-1.7127,-1.7271,-1.7275,-1.7278,-1.7336,0,0,0,0,0,0,-1.7054,-1.7063,-1.7086,-1.709,-1.7097,-1.7156,-1.7108,-1.7105,-1.7118,-1.7113,-1.712,-1.7119,-1.7107,-1.7153,-1.716,-1.7193,-1.7129,-1.7268,-1.7273,-1.7277,-1.7331,-1.7341,-1.7349,0,0,0,0,0,-1.7051,-1.7101,-1.7087,-1.7094,-1.7126,-1.7158,-1.7162,-1.7148,-1.7121,-1.7144,-1.7142,-1.7119,-1.7185,-1.7158,-1.7165,-1.72,-1.7266,-1.7272,-1.7277,-1.7327,-1.7339,-1.7349,0,0,0,0,0,0,-1.7101,-1.7101,-1.7086,-1.7139,-1.7149,-1.715,-1.7179,-1.7161,-1.7179,-1.7173,-1.7154,-1.7156,-1.7204,-1.7206,-1.7175,-1.7259,-1.7221,-1.7228,-1.7256,-1.7268,-1.7277,-1.7276,-1.7131,0,0,0,0,0,-1.7119,-1.7145,-1.7143,-1.719,-1.7196,-1.7187,-1.72,-1.7188,-1.7198,-1.7202,-1.7203,-1.7213,-1.7236,-1.7252,-1.7273,-1.733,-1.7332,-1.7358,-1.7367,-1.7375,-1.7381,-1.7412,-1.7424,-1.7297,-1.7297,-1.7297,0,0,-1.7154,-1.7157,-1.7175,-1.72,-1.7206,-1.7234,-1.7191,-1.7222,-1.7242,-1.7207,-1.7248,-1.7249,-1.7259,-1.731,-1.7332,-1.7313,-1.7416,-1.7381,-1.7388,-1.739,-1.7419,-1.7431,-1.7442,-1.7301,-1.73,-1.73,0,0,-1.7234,-1.7239,-1.7278,-1.7285,-1.7295,-1.7289,-1.7299,-1.7303,-1.7303,-1.7344,-1.7318,-1.7342,-1.7382,-1.739,-1.74,-1.7483,-1.7462,-1.749,-1.7538,-1.7569,-1.7579,-1.7588,-1.7618,-1.7629,-1.7496,-1.7496,-1.7496,0,-1.7277,-1.7318,-1.7301,-1.7334,-1.7346,-1.7315,-1.7355,-1.7362,-1.7379,-1.7388,-1.7366,-1.7416,-1.7421,-1.7473,-1.7494,-1.7502,-1.7513,-1.7489,-1.7579,-1.7587,-1.7595,-1.7624,-1.7635,-1.75,-1.7499,-1.7499,-1.7499,0,-1.7371,-1.7399,-1.743,-1.7447,-1.7462,-1.7499,-1.7487,-1.7505,-1.7491,-1.7487,-1.753,-1.7534,-1.7556,-1.7567,-1.7554,-1.7618,-1.7606,-1.7582,-1.7543,-1.7611,-1.7638,-1.7648,-1.7505,-1.7503,-1.7502,-1.7502,0,0,-1.7483,-1.749,-1.7502,-1.7509,-1.7518,-1.754,-1.7575,-1.7596,-1.7611,-1.7624,-1.7653,-1.7688,-1.7665,-1.7676,-1.7664,-1.7691,-1.7757,-1.7663,-1.7663,-1.7681,-1.7828,-1.7847,-1.786,-1.7742,-1.7744,-1.7746,-1.7827,0,-1.7563,-1.7623,-1.7609,-1.7668,-1.7695,-1.7666,-1.7696,-1.7705,-1.7702,-1.7724,-1.772,-1.7746,-1.7714,-1.7721,-1.7745,-1.7743,-1.7786,-1.7737,-1.777,-1.7771,-1.7769,-1.7873,-1.7893,-1.797,-1.7837,-1.7839,-1.784,0,-1.7663,-1.768,-1.7742,-1.7747,-1.7757,-1.7785,-1.7804,-1.7825,-1.7834,-1.783,-1.7842,-1.7825,-1.786,-1.782,-1.7868,-1.7835,-1.7848,-1.7849,-1.7851,-1.7854,-1.7811,-1.788,-1.7994,-1.8006,-1.7856,-1.7855,-1.7854,0,-1.774,-1.7778,-1.782,-1.7827,-1.7833,-1.7854,-1.7857,-1.7864,-1.7878,-1.7894,-1.7903,-1.7922,-1.7934,-1.7949,-1.7938,-1.791,-1.7988,-1.7947,-1.7986,-1.7986,-1.8004,-1.8004,-1.8122,-1.8011,-1.8011,-1.8011,-1.801,0,-1.7831,-1.7871,-1.7855,-1.7881,-1.7924,-1.7907,-1.7951,-1.7951,-1.7958,-1.7983,-1.7959,-1.7983,-1.7966,-1.7989,-1.798,-1.8022,-1.8027,-1.8025,-1.8022,-1.8028,-1.8028,-1.8036,-1.8031,-1.8014,-1.8013,-1.8012,-1.8012,0,-1.7925,-1.7915,-1.796,-1.7962,-1.7963,-1.7996,-1.7997,-1.8022,-1.8017,-1.805,-1.8057,-1.8049,-1.8075,-1.8065,-1.8092,-1.8086,-1.814,-1.8129,-1.8137,-1.8134,-1.8174,-1.8171,-1.8303,-1.832,-1.8197,-1.8198,-1.8199,0,-1.7984,-1.8013,-1.8019,-1.8034,-1.804,-1.8065,-1.8079,-1.8063,-1.8078,-1.8091,-1.8114,-1.8138,-1.8157,-1.82,-1.8197,-1.8218,-1.8209,-1.8253,-1.8212,-1.8216,-1.821,-1.8209,-1.8212,-1.8262,-1.8264,-1.8265,-1.8266,0,-1.809,-1.8084,-1.8105,-1.8124,-1.8142,-1.8156,-1.8169,-1.8183,-1.8167,-1.8186,-1.8212,-1.8227,-1.8255,-1.8279,-1.8298,-1.8301,-1.8282,-1.8279,-1.8289,-1.8295,-1.8299,-1.8298,-1.8161,-1.8276,-1.8275,-1.8274,-1.8274,-1.8273,-1.8168,-1.8194,-1.8202,-1.8226,-1.8233,-1.8246,-1.8269,-1.8267,-1.8289,-1.831,-1.83,-1.833,-1.8339,-1.8362,-1.8368,-1.8392,-1.8375,-1.8389,-1.8393,-1.8397,-1.8403,-1.8294,-1.8395,-1.8395,-1.8395,-1.8394,-1.8394,0,-1.8274,-1.8277,-1.83,-1.8318,-1.8337,-1.8316,-1.8329,-1.8346,-1.8374,-1.8383,-1.8402,-1.8432,-1.8456,-1.8455,-1.8476,-1.8496,-1.8487,-1.8502,-1.8501,-1.8502,-1.8417,-1.8406,-1.8509,-1.8509,-1.8509,-1.8509,-1.8509,-1.8509,-1.8331,-1.8373,-1.8368,-1.8414,-1.8417,-1.8447,-1.8456,-1.8467,-1.8475,-1.851,-1.8529,-1.8528,-1.8533,-1.8555,-1.8576,-1.8575,-1.8584,-1.8603,-1.8599,-1.8519,-1.8508,-1.8497,-1.8487,-1.8605,-1.8605,-1.8682,-1.8683,-1.8683]},{"header":{"parameterUnit":"m.s-1","parameterCategory":1,"la1":30.2991,"la2":30.254,"lo1":-89.0895,"lo2":-89.0444,"dy":0.0017,"dx":0.0017,"nx":28,"ny":28,"refTime":"2025-01-27T03:00:00:Z","depth":0,"parameterNumber":3,"parameterNumberName":"V-component_of_WINDS"},"data":[0,0,0,0,0,0,0,0,0,0,0,0,0,0,0,0,0,0,0,0,0,0,0,0,0,0,0,0,0,0,0,0,0,0,0,0,0,0,0,0,0,0,0,0,0,0,0,0,0,0,0,0,0,0,0,0,0,0,-2.8253,-2.8253,0,-2.8296,-2.8296,-2.8297,-2.8271,-2.827,-2.8269,-2.8267,-2.8311,-2.8313,-2.8315,0,0,0,0,0,0,0,0,0,0,0,0,0,-2.8149,-2.8151,-2.8253,-2.8253,-2.8254,-2.8295,-2.8296,-2.8297,-2.8271,-2.827,-2.8268,-2.8267,-2.831,-2.8313,-2.8316,0,0,0,0,0,0,0,0,0,0,0,0,0,-2.8193,-2.8152,-2.8253,-2.8246,-2.8246,-2.8295,-2.8296,-2.8297,-2.8272,-2.827,-2.8268,-2.8266,-2.8309,-2.8313,-2.8316,-2.8374,0,0,-2.8327,-2.8328,0,0,0,0,0,0,0,0,-2.8191,-2.8197,-2.8247,-2.8247,-2.8247,-2.8276,-2.8275,-2.8323,-2.8272,-2.8262,-2.8267,-2.8265,-2.8301,-2.8305,-2.8317,-2.8376,-2.8378,-2.8327,-2.8329,-2.833,-2.8331,0,0,0,0,0,0,0,-2.8188,-2.8195,-2.827,-2.8247,-2.8248,-2.8241,-2.8245,-2.8284,-2.8291,-2.8263,-2.8261,-2.8266,-2.83,-2.8314,-2.8318,-2.8379,-2.8327,-2.833,-2.8332,-2.8333,-2.8487,-2.8489,0,0,0,0,0,0,-2.8185,-2.8193,-2.8268,-2.8271,-2.8214,-2.8244,-2.8249,-2.8269,-2.8291,-2.8292,-2.8268,-2.8265,-2.8309,-2.8314,-2.8319,-2.8389,-2.833,-2.8334,-2.8336,-2.8485,-2.8488,-2.849,0,0,0,0,0,0,-2.8183,-2.8192,-2.8267,-2.8231,-2.824,-2.8248,-2.827,-2.827,-2.8283,-2.8295,-2.8296,-2.828,-2.8307,-2.8314,-2.8361,-2.839,-2.8335,-2.8338,-2.8483,-2.8486,-2.8489,-2.8528,0,0,0,0,0,0,-2.818,-2.8192,-2.8214,-2.8232,-2.8242,-2.8308,-2.8272,-2.8272,-2.8289,-2.8286,-2.8306,-2.8308,-2.8306,-2.8356,-2.8364,-2.8393,-2.8341,-2.848,-2.8484,-2.8488,-2.8524,-2.8532,-2.8539,0,0,0,0,0,-2.8176,-2.8223,-2.8215,-2.8224,-2.827,-2.8309,-2.8315,-2.8313,-2.8292,-2.8314,-2.8321,-2.8307,-2.8385,-2.8361,-2.837,-2.8401,-2.8479,-2.8483,-2.8488,-2.8521,-2.853,-2.8538,0,0,0,0,0,0,-2.8208,-2.8225,-2.8217,-2.8271,-2.8289,-2.8305,-2.8333,-2.8323,-2.8347,-2.8343,-2.8339,-2.8344,-2.8392,-2.8401,-2.8373,-2.8458,-2.8429,-2.8435,-2.8451,-2.846,-2.8467,-2.8464,-2.8344,0,0,0,0,0,-2.8221,-2.8251,-2.8265,-2.8311,-2.8321,-2.8326,-2.8342,-2.8339,-2.8357,-2.8365,-2.8375,-2.8394,-2.8423,-2.8442,-2.8468,-2.8525,-2.8529,-2.8551,-2.8558,-2.8564,-2.857,-2.8601,-2.861,-2.8505,-2.8505,-2.8505,0,0,-2.8249,-2.8262,-2.8281,-2.8318,-2.8331,-2.8363,-2.8332,-2.8367,-2.839,-2.837,-2.8415,-2.8423,-2.8443,-2.8495,-2.8518,-2.8504,-2.86,-2.857,-2.8575,-2.8577,-2.8606,-2.8616,-2.8625,-2.8508,-2.8508,-2.8507,0,0,-2.8315,-2.8328,-2.8368,-2.8382,-2.8404,-2.8406,-2.8416,-2.8434,-2.8439,-2.8483,-2.8469,-2.8496,-2.8546,-2.8561,-2.8575,-2.8647,-2.8635,-2.8656,-2.8694,-2.8724,-2.8732,-2.874,-2.8765,-2.8775,-2.8662,-2.8662,-2.8662,0,-2.8347,-2.8394,-2.839,-2.8426,-2.8442,-2.8426,-2.8466,-2.848,-2.8509,-2.852,-2.8504,-2.8565,-2.8578,-2.8633,-2.865,-2.8662,-2.8673,-2.8654,-2.8731,-2.8739,-2.8745,-2.877,-2.878,-2.8664,-2.8664,-2.8664,-2.8663,0,-2.8432,-2.8464,-2.8494,-2.8522,-2.8542,-2.858,-2.8582,-2.8602,-2.8597,-2.8601,-2.8647,-2.8661,-2.8691,-2.8703,-2.8699,-2.8758,-2.8748,-2.8732,-2.8702,-2.8758,-2.8781,-2.879,-2.8668,-2.8667,-2.8666,-2.8665,0,0,-2.8519,-2.8545,-2.8556,-2.8569,-2.8591,-2.8616,-2.8653,-2.8682,-2.8699,-2.8719,-2.875,-2.8792,-2.8777,-2.8793,-2.879,-2.8816,-2.8872,-2.8796,-2.8796,-2.881,-2.8939,-2.8951,-2.8962,-2.8864,-2.8866,-2.8867,-2.8937,0,-2.8587,-2.8652,-2.865,-2.871,-2.874,-2.8725,-2.8757,-2.8774,-2.8779,-2.8805,-2.8811,-2.8841,-2.8818,-2.8828,-2.8853,-2.886,-2.8898,-2.8855,-2.8893,-2.8895,-2.8889,-2.8974,-2.8988,-2.9053,-2.8946,-2.8948,-2.8949,0,-2.8675,-2.8699,-2.8762,-2.878,-2.8792,-2.8821,-2.8848,-2.8873,-2.8892,-2.8893,-2.8911,-2.8904,-2.8941,-2.891,-2.8962,-2.8932,-2.8948,-2.8954,-2.8956,-2.896,-2.8925,-2.8981,-2.9074,-2.9084,-2.8963,-2.8962,-2.8961,0,-2.8733,-2.8781,-2.8825,-2.8836,-2.8857,-2.8878,-2.8888,-2.8905,-2.8922,-2.8945,-2.8957,-2.8983,-2.8998,-2.9019,-2.9019,-2.8997,-2.9071,-2.904,-2.9074,-2.9074,-2.9091,-2.909,-2.9188,-2.91,-2.91,-2.91,-2.91,0,-2.881,-2.8849,-2.8851,-2.8878,-2.8922,-2.8919,-2.8962,-2.897,-2.8985,-2.9013,-2.9001,-2.9028,-2.9026,-2.9053,-2.9053,-2.9096,-2.9103,-2.9105,-2.9105,-2.9107,-2.9107,-2.9117,-2.9113,-2.9102,-2.9102,-2.9101,-2.9101,0,-2.8882,-2.8885,-2.8932,-2.8948,-2.8953,-2.8985,-2.8999,-2.9025,-2.9028,-2.9064,-2.9073,-2.9079,-2.911,-2.9112,-2.9148,-2.9148,-2.92,-2.9194,-2.9194,-2.9193,-2.9227,-2.9224,-2.9335,-2.935,-2.9252,-2.9253,-2.9254,0,-2.8931,-2.8961,-2.898,-2.8999,-2.901,-2.9039,-2.9057,-2.9055,-2.9074,-2.9097,-2.912,-2.915,-2.9174,-2.9225,-2.9233,-2.926,-2.9255,-2.9293,-2.9259,-2.926,-2.9256,-2.9255,-2.9258,-2.9299,-2.93,-2.9301,-2.9302,0,-2.9017,-2.9017,-2.9043,-2.907,-2.9092,-2.9113,-2.9132,-2.9148,-2.9148,-2.917,-2.9202,-2.922,-2.9257,-2.9287,-2.9314,-2.9324,-2.9313,-2.9312,-2.9322,-2.9324,-2.9322,-2.9324,-2.9212,-2.931,-2.9309,-2.9308,-2.9308,-2.9308,-2.9079,-2.9105,-2.9123,-2.9153,-2.9167,-2.9186,-2.9211,-2.9218,-2.9244,-2.9274,-2.9271,-2.9307,-2.9324,-2.9359,-2.9371,-2.9399,-2.9386,-2.94,-2.9403,-2.9407,-2.941,-2.9318,-2.9404,-2.9403,-2.9403,-2.9403,-2.9403,0,-2.9165,-2.9176,-2.9203,-2.9231,-2.9254,-2.9242,-2.9263,-2.9283,-2.9315,-2.9332,-2.9356,-2.9392,-2.9422,-2.9431,-2.946,-2.948,-2.9476,-2.9488,-2.9486,-2.9489,-2.942,-2.9409,-2.949,-2.949,-2.949,-2.949,-2.949,-2.949,-2.9213,-2.9256,-2.9258,-2.9309,-2.9319,-2.9354,-2.9367,-2.9384,-2.9398,-2.9439,-2.9463,-2.947,-2.9484,-2.9513,-2.9539,-2.9541,-2.9553,-2.9567,-2.9567,-2.9502,-2.9494,-2.9485,-2.9475,-2.9569,-2.9569,-2.9633,-2.9634,-2.9634]}]]